Regional Weather Roundup
Issued by NWS

Home | Current Version | Previous Version | Graphics & Text | Print | Product List | Glossary Off
Versions: 1 2 3 4 5 6 7 8 9 10 11 12 13 14 15 16 17 18 19 20 21 22 23 24 25 26 27 28 29 30 31 32 33 34 35 36 37 38 39 40 41 42 43 44 45 46 47 48 49 50

000
ASUS43 KTOP 170708
RWRKS

WEATHER ROUNDUP FOR KANSAS
NATIONAL WEATHER SERVICE GOODLAND KS
200 AM CDT THU AUG 17 2017

NOTE:  "FAIR" INDICATES FEW OR NO CLOUDS BELOW 12,000 FEET WITH NO
SIGNIFICANT WEATHER AND/OR OBSTRUCTIONS TO VISIBILITY.

KSZ001>006-013>018-027>032-041>047-170800-
NORTHWEST KANSAS

CITY           SKY/WX    TMP DP  RH WIND       PRES   REMARKS
GOODLAND       CLEAR     56  54  93 SW5       30.10R
HAYS           CLEAR     61  60  97 W6        30.01S
HILL CITY      CLEAR     61  60  97 W7        30.02S
RUSSELL        CLEAR     62  60  93 W6        29.97F
$$

KSZ061>065-074>080-084>089-170800-
SOUTHWEST KANSAS

CITY           SKY/WX    TMP DP  RH WIND       PRES   REMARKS
DODGE CITY     CLEAR     61  58  90 N7        30.04F
ELKHART          N/A     64  56  75 NE6         N/A
GARDEN CITY    CLEAR     64  58  80 NE8       30.07S
GREAT BEND     CLEAR     63  61  93 NW7       29.99F
LIBERAL        CLEAR     65  59  81 N8        30.07F
PRATT          CLEAR     65  60  83 NW7       29.99S
$$

KSZ066>073-081>083-090>101-170800-
SOUTHEAST KANSAS

CITY           SKY/WX    TMP DP  RH WIND       PRES   REMARKS
CHANUTE        CLOUDY    68  67  96 S6        29.90S
COFFEYVILLE    CLOUDY    69  68  96 SW5       29.89F
HUTCHINSON     CLEAR     67  62  84 N8        29.94S
MEDICINE LODGE   N/A     66  63  90 N3        29.95R
NEWTON         CLOUDY    69  65  86 NW8       29.94R
PARSONS        CLOUDY    69  67  93 SW3       29.90F
WICHITA INTL   CLOUDY    68  68 100 CALM      29.92R
WICHITA JABRA  CLOUDY    70  69  97 W6        29.92R
WICHITA MCCONL CLOUDY    71  68  89 CALM      29.92S
WINFIELD       CLOUDY    70  69  97 CALM      29.92F FOG
$$

KSZ007>012-019>026-033>040-048>060-102>105-170800-
NORTHEAST KANSAS

CITY           SKY/WX    TMP DP  RH WIND       PRES   REMARKS
CONCORDIA      CLEAR     64  64 100 W9        29.93F
EMPORIA        CLOUDY    70  68  93 W5        29.89S
LAWRENCE       CLOUDY    68  68 100 CALM      29.87R
MANHATTAN      CLEAR     65  63  93 CALM      29.90R
MARYSVILLE     CLEAR     63  63 100 NW5       29.90S
OLATHE IND     CLOUDY    68  67  96 SW9       29.87S
OLATHE EXE     CLOUDY    67  67 100 SW6       29.87R
SALINA         CLEAR     68  63  84 NW8       29.93F
TOPEKA BILLARD CLOUDY    71  68  90 W8        29.87R
TOPEKA FORBES  CLOUDY    71  67  87 NW8       29.88R
$$




USA.gov is the U.S. government's official web portal to all federal, state and local government web resources and services.